Home   Weather   Münster   Past weeks

Flag for Germany Past Weather in Münster, North Rhine-Westphalia, Germany — Yesterday and Last 2 Weeks

Now
50 °F

Scattered clouds.


Feels Like: 45 °F
Forecast: 36 / 47 °F
Wind: 15 mph from Southwest

Location: Muenster / Osnabrueck

Current Time: Apr 24, 2017 at 11:28:26 am

Latest Report: Apr 24, 2017 at 10:50 am


Visibility: N/A

Pressure: 29.98 "Hg

Humidity: 50%

Dew Point: 32 °F

Location of MünsterLocation

Past Weather in Münster — Graph

°F

Münster Temperature Yesterday

Maximum temperature yesterday: 50 °F (at 2:20 pm)
Minimum temperature yesterday: 36 °F (at 4:50 am)
Average temperature yesterday: 43 °F

High & Low Weather Summary for the Past Weeks

 TemperatureHumidityPressure
High72 °F (Apr 9, 5:50 pm)100% (Apr 12, 11:50 pm)30.63 "Hg (Apr 12, 11:50 pm)
Low27 °F (Apr 20, 4:20 am)25% (Apr 9, 6:20 pm)29.83 "Hg (Apr 15, 5:50 am)
Average45 °F70%30.17 "Hg
* Reported Apr 9 9:20 am — Apr 24 9:20 am, Münster, Weather by CustomWeather, © 2017

Note: Actual official high and low records may vary slightly from our data, if they occured in-between our weather recording intervals... More about our weather records

Advertising

Münster Weather History for the Previous 24 Hours

Scroll right to see more
 ConditionsComfort  
Time TempWeatherWind HumidityBarometerVisibility
9:20 am
Mon, Apr 24
45 °FPassing clouds.13 mph66%30.01 "HgN/A
8:50 am43 °FSunny.12 mph71%30.01 "Hg10 mi
8:20 am43 °FPassing clouds.10 mph76%30.04 "HgN/A
7:50 am41 °FSunny.9 mph76%30.04 "Hg10 mi
7:20 am39 °FSunny.8 mph81%30.04 "Hg10 mi
6:50 am34 °FPassing clouds.3 mph93%30.07 "HgN/A
6:20 am34 °FFog.5 mph87%30.07 "HgN/A
5:50 am32 °FFog.5 mph93%30.07 "HgN/A
5:20 am32 °FClear.3 mph93%30.09 "Hg10 mi
4:50 am32 °FClear.2 mph93%30.09 "Hg10 mi
4:20 am32 °FClear.3 mph93%30.09 "Hg10 mi
3:50 am36 °FClear.5 mph81%30.12 "Hg10 mi
3:20 am34 °FClear.5 mph87%30.12 "Hg10 mi
2:50 am34 °FPassing clouds.3 mph87%30.15 "HgN/A
2:20 am36 °FClear.2 mph87%30.15 "Hg10 mi
1:50 am34 °FClear.1 mph93%30.15 "Hg10 mi
1:20 am34 °FClear.2 mph87%30.18 "Hg10 mi
12:50 am36 °FClear.2 mph81%30.18 "Hg10 mi
12:20 am36 °FClear.5 mph81%30.18 "Hg10 mi
11:50 pm
Sun, Apr 23
37 °FClear.2 mph81%30.21 "Hg10 mi
11:20 pm39 °FClear.2 mph75%30.21 "Hg10 mi
10:50 pm41 °FPassing clouds.2 mph70%30.21 "HgN/A
10:20 pm41 °FPassing clouds.No wind70%30.21 "HgN/A
9:50 pm43 °FPartly cloudy.1 mph66%30.21 "HgN/A
9:20 pm45 °FPassing clouds.2 mph61%30.21 "HgN/A
8:50 pm45 °FPassing clouds.2 mph57%30.21 "HgN/A
8:20 pm46 °FPartly sunny.7 mph50%30.21 "HgN/A
7:50 pm48 °FPartly sunny.8 mph46%30.21 "HgN/A
7:20 pm48 °FPartly sunny.8 mph46%30.21 "HgN/A
6:50 pm48 °FScattered clouds.10 mph46%30.21 "HgN/A
6:20 pm50 °FScattered clouds.10 mph50%30.21 "HgN/A
5:50 pm48 °FPartly sunny.10 mph54%30.21 "HgN/A
5:20 pm50 °FPartly sunny.14 mph54%30.21 "HgN/A
4:50 pm48 °FSprinkles. Partly sunny.14 mph54%30.24 "HgN/A
4:20 pm48 °FPartly sunny.15 mph58%30.24 "HgN/A
3:50 pm48 °FScattered showers. Partly sunny.15 mph54%30.24 "HgN/A
3:20 pm48 °FScattered showers. Scattered clouds.14 mph46%30.24 "HgN/A
2:50 pm50 °FScattered clouds.14 mph50%30.21 "HgN/A
2:20 pm50 °FPartly sunny.17 mph50%30.24 "HgN/A
1:50 pm48 °FPartly sunny.16 mph58%30.24 "HgN/A
1:20 pm46 °FSprinkles. Partly sunny.13 mph71%30.24 "HgN/A
12:50 pm46 °FScattered clouds.8 mph76%30.24 "HgN/A
12:20 pm41 °FSprinkles. Scattered clouds.13 mph87%30.27 "HgN/A
11:50 am46 °FSprinkles. Partly sunny.13 mph62%30.24 "HgN/A
11:20 am46 °FPartly sunny.12 mph57%30.24 "HgN/A
Weather by CustomWeather, © 2017

See weather overviewHow to use our weather pages